This is the latest recevied weather packets stored in our database for station/object K8RLH. If no packets are shown the sender has not sent any weather packets the latest 10 day(s).
| Time | Temp. | Humidity | Pressure | Rain* | Wind** | Luminosity | Snow |
|---|---|---|---|---|---|---|---|
| 1777992807 | 20.56° C | 60% | 1019.3 hPa | 0 mm | - | 91 W/m² | - |
| 1777992504 | 20° C | 60% | 1019.1 hPa | 0 mm | - | 98 W/m² | - |
| 1777992203 | 20.56° C | 59% | 1019.3 hPa | 0 mm | - | 136 W/m² | - |
| 1777991899 | 20.56° C | 59% | 1019.2 hPa | 0 mm | - | 332 W/m² | - |
| 1777991597 | 20° C | 60% | 1019.1 hPa | 0 mm | - | 407 W/m² | - |
| 1777991294 | 20° C | 62% | 1019.2 hPa | 0 mm | - | 416 W/m² | - |
| 1777990992 | 19.44° C | 62% | 1019 hPa | 0 mm | - | 519 W/m² | - |
| 1777990689 | 18.89° C | 64% | 1019.1 hPa | 0 mm | - | 466 W/m² | - |
| 1777990386 | 19.44° C | 63% | 1019.2 hPa | 0 mm | - | 457 W/m² | - |
| 1777989778 | 18.33° C | 65% | 1019.1 hPa | 0 mm | - | 437 W/m² | - |
| 1777989475 | 17.78° C | 68% | 1018.9 hPa | 0 mm | - | 420 W/m² | - |
| 1777989172 | 17.78° C | 69% | 1018.8 hPa | 0 mm | - | 197 W/m² | - |
| 1777988868 | 17.22° C | 69% | 1018.8 hPa | 0 mm | - | 71 W/m² | - |
| 1777988566 | 17.22° C | 70% | 1018.9 hPa | 0 mm | - | 62 W/m² | - |
| 1777988262 | 16.67° C | 71% | 1018.9 hPa | 0 mm | - | 210 W/m² | - |
| 1777987958 | 16.67° C | 72% | 1018.7 hPa | 0 mm | - | 53 W/m² | - |
| 1777987654 | 16.67° C | 72% | 1018.6 hPa | 0 mm | - | 51 W/m² | - |
| 1777987352 | 16.11° C | 73% | 1018.5 hPa | 0 mm | - | 82 W/m² | - |
| 1777987049 | 16.11° C | 74% | 1018.7 hPa | 0 mm | - | 44 W/m² | - |
| 1777986746 | 15.56° C | 76% | 1018.7 hPa | 0 mm | - | 38 W/m² | - |
| 1777986444 | 15.56° C | 76% | 1018.8 hPa | 0 mm | - | 58 W/m² | - |
| 1777986142 | 15.56° C | 76% | 1018.6 hPa | 0 mm | - | 37 W/m² | - |
| 1777985838 | 15° C | 76% | 1018.5 hPa | 0 mm | - | 110 W/m² | - |
| 1777985536 | 15° C | 76% | 1018.6 hPa | 0 mm | - | 35 W/m² | - |
| 1777985232 | 15° C | 76% | 1018.5 hPa | 0 mm | - | 34 W/m² | - |
* Rain latest hour (hover to see other rain measurements)
** Current wind speed in m/s (hover to see current wind gust speed)